When you browse on this site, cookies collect data to enhance your experience and personalize the content and advertising you see.
Visit our Privacy Policy to learn more. By continuing to use the site, you agree to this use of cookies and data.
  • In Österreich
  • Länderverzeichnis
  • Für 7 Tage
  • Wassertemperatur
  • Satellitenkarten
  • Wetterkarte
  • News
  • Widgets
  • user-avatar
    Anmelden

    Stündliche Wetter Manika

    Heute, 9 Dezember, Sonntag

    Zeit Temperatur Niederschläge Wind Luftdruck Luftfeuchtigkeit
    00:00 +24°C° 0.1 mm 1 m/S 676 mmHg 79%
    01:00 +24°C° 0.1 mm 1 m/S 676 mmHg 78%
    02:00 +24°C° 0 mm 1 m/S 676 mmHg 78%
    03:00 +23°C° 0.2 mm 1 m/S 676 mmHg 79%
    04:00 +23°C° 0.2 mm 1 m/S 676 mmHg 79%
    05:00 +23°C° 0.2 mm 1 m/S 676 mmHg 79%
    06:00 +25°C° 0.4 mm 1 m/S 677 mmHg 73%
    07:00 +27°C° 0.4 mm 1 m/S 678 mmHg 67%
    08:00 +29°C° 0 mm 1 m/S 679 mmHg 59%
    09:00 +29°C° 0.9 mm 1 m/S 679 mmHg 58%
    10:00 +29°C° 0.9 mm 1 m/S 678 mmHg 57%
    11:00 +29°C° 0.9 mm 2 m/S 678 mmHg 56%
    12:00 +29°C° 0.5 mm 2 m/S 678 mmHg 54%
    13:00 +30°C° 0.5 mm 2 m/S 678 mmHg 52%
    14:00 +27°C° 0 mm 3 m/S 678 mmHg 62%
    15:00 +26°C° 0.2 mm 2 m/S 678 mmHg 64%
    16:00 +26°C° 0.2 mm 2 m/S 677 mmHg 67%
    17:00 +25°C° 0.2 mm 2 m/S 677 mmHg 69%
    18:00 +25°C° 0.1 mm 1 m/S 677 mmHg 72%
    19:00 +24°C° 0.1 mm 1 m/S 677 mmHg 75%
    20:00 +21°C° 0.1 mm 0 m/S 677 mmHg 77%
    21:00 +21°C° 0 mm 0 m/S 677 mmHg 79%
    22:00 +22°C° 0 mm 1 m/S 677 mmHg 80%
    23:00 +22°C° 0 mm 1 m/S 677 mmHg 81%

    Morgen, 10 Dezember, Montag

    Zeit Temperatur Niederschläge Wind Luftdruck Luftfeuchtigkeit
    00:00 +22°C° 0 mm 1 m/S 677 mmHg 82%
    01:00 +21°C° 0 mm 1 m/S 677 mmHg 82%
    02:00 +21°C° 0 mm 1 m/S 677 mmHg 83%
    03:00 +21°C° 0 mm 1 m/S 677 mmHg 83%
    04:00 +21°C° 0 mm 1 m/S 677 mmHg 84%
    05:00 +20°C° 0 mm 1 m/S 677 mmHg 84%
    06:00 +23°C° 0 mm 1 m/S 678 mmHg 75%
    07:00 +25°C° 0 mm 1 m/S 678 mmHg 67%
    08:00 +27°C° 0 mm 1 m/S 679 mmHg 58%
    09:00 +29°C° 0.1 mm 1 m/S 679 mmHg 53%
    10:00 +30°C° 0.1 mm 1 m/S 679 mmHg 48%
    11:00 +32°C° 0.1 mm 2 m/S 679 mmHg 44%
    12:00 +32°C° 0.5 mm 1 m/S 679 mmHg 45%
    13:00 +31°C° 0.5 mm 1 m/S 678 mmHg 46%
    14:00 +31°C° 0.5 mm 1 m/S 678 mmHg 47%
    15:00 +30°C° 0.4 mm 1 m/S 678 mmHg 51%
    16:00 +29°C° 0.4 mm 1 m/S 677 mmHg 56%
    17:00 +28°C° 0.4 mm 2 m/S 677 mmHg 60%
    18:00 +26°C° 0.7 mm 2 m/S 677 mmHg 68%
    19:00 +25°C° 0.7 mm 2 m/S 678 mmHg 75%
    20:00 +23°C° 0.7 mm 1 m/S 678 mmHg 83%
    21:00 +23°C° 0.2 mm 1 m/S 678 mmHg 86%
    22:00 +22°C° 0.2 mm 1 m/S 678 mmHg 88%
    23:00 +22°C° 0.2 mm 1 m/S 679 mmHg 91%

    übermorgen, 11 Dezember, Dienstag

    Zeit Temperatur Niederschläge Wind Luftdruck Luftfeuchtigkeit
    00:00 +22°C° 0 mm 1 m/S 678 mmHg 91%
    01:00 +22°C° 0 mm 1 m/S 678 mmHg 92%
    02:00 +22°C° 0 mm 1 m/S 678 mmHg 92%
    03:00 +21°C° 0.3 mm 1 m/S 678 mmHg 92%
    04:00 +21°C° 0.3 mm 1 m/S 678 mmHg 92%
    05:00 +20°C° 0.3 mm 2 m/S 678 mmHg 92%
    06:00 +20°C° 0.4 mm 2 m/S 679 mmHg 91%
    07:00 +21°C° 0.4 mm 2 m/S 679 mmHg 89%
    08:00 +21°C° 0.4 mm 2 m/S 679 mmHg 87%
    09:00 +23°C° 0.2 mm 2 m/S 679 mmHg 83%
    10:00 +24°C° 0.2 mm 1 m/S 679 mmHg 78%
    11:00 +25°C° 0.2 mm 1 m/S 679 mmHg 73%
    12:00 +26°C° 0.4 mm 2 m/S 679 mmHg 71%
    13:00 +26°C° 0.4 mm 2 m/S 679 mmHg 69%
    14:00 +27°C° 0.4 mm 2 m/S 678 mmHg 66%
    15:00 +26°C° 0.6 mm 2 m/S 678 mmHg 69%
    16:00 +25°C° 0.6 mm 2 m/S 678 mmHg 72%
    17:00 +24°C° 0.6 mm 2 m/S 678 mmHg 75%
    18:00 +24°C° 0.5 mm 2 m/S 678 mmHg 79%
    19:00 +23°C° 0.5 mm 2 m/S 679 mmHg 82%
    20:00 +22°C° 0.5 mm 1 m/S 679 mmHg 85%
    21:00 +22°C° 0.4 mm 1 m/S 679 mmHg 87%
    22:00 +21°C° 0.4 mm 1 m/S 679 mmHg 88%
    23:00 +21°C° 0.4 mm 1 m/S 680 mmHg 90%

    12 Dezember, Mittwoch

    Zeit Temperatur Niederschläge Wind Luftdruck Luftfeuchtigkeit
    00:00 +21°C° 0.4 mm 1 m/S 679 mmHg 91%
    01:00 +21°C° 0.4 mm 1 m/S 679 mmHg 92%
    02:00 +21°C° 0.4 mm 1 m/S 678 mmHg 93%
    03:00 +20°C° 0.3 mm 1 m/S 678 mmHg 93%
    04:00 +20°C° 0.3 mm 1 m/S 678 mmHg 93%
    05:00 +20°C° 0.3 mm 1 m/S 678 mmHg 93%
    06:00 +21°C° 0.2 mm 1 m/S 679 mmHg 92%
    07:00 +21°C° 0.2 mm 1 m/S 679 mmHg 91%
    08:00 +19°C° 0.2 mm 0 m/S 679 mmHg 90%
    09:00 +20°C° 0.1 mm 0 m/S 679 mmHg 87%
    10:00 +20°C° 0.1 mm 0 m/S 680 mmHg 84%
    11:00 +21°C° 0.1 mm 0 m/S 680 mmHg 81%
    12:00 +22°C° 0.1 mm 0 m/S 679 mmHg 77%
    13:00 +23°C° 0.1 mm 0 m/S 679 mmHg 72%
    14:00 +26°C° 0.1 mm 1 m/S 678 mmHg 68%
    15:00 +26°C° 0.1 mm 1 m/S 678 mmHg 67%
    16:00 +26°C° 0.1 mm 1 m/S 678 mmHg 67%
    17:00 +26°C° 0.1 mm 1 m/S 678 mmHg 66%
    18:00 +25°C° 0.2 mm 1 m/S 678 mmHg 73%
    19:00 +23°C° 0.2 mm 1 m/S 678 mmHg 79%
    20:00 +22°C° 0.2 mm 1 m/S 679 mmHg 85%
    21:00 +22°C° 0.1 mm 1 m/S 679 mmHg 87%
    22:00 +20°C° 0.1 mm 0 m/S 679 mmHg 88%
    23:00 +19°C° 0.1 mm 0 m/S 679 mmHg 90%

    13 Dezember, Donnerstag

    Zeit Temperatur Niederschläge Wind Luftdruck Luftfeuchtigkeit
    00:00 +19°C° 0 mm 0 m/S 679 mmHg 90%
    01:00 +19°C° 0 mm 0 m/S 678 mmHg 91%
    02:00 +19°C° 0 mm 0 m/S 678 mmHg 92%
    03:00 +19°C° 0.1 mm 0 m/S 678 mmHg 92%
    04:00 +18°C° 0.1 mm 0 m/S 678 mmHg 92%
    05:00 +18°C° 0.1 mm 0 m/S 678 mmHg 92%
    06:00 +22°C° 0.1 mm 1 m/S 679 mmHg 85%
    07:00 +24°C° 0.1 mm 1 m/S 679 mmHg 78%
    08:00 +25°C° 0.1 mm 1 m/S 680 mmHg 72%
    09:00 +27°C° 0.2 mm 1 m/S 680 mmHg 66%
    10:00 +29°C° 0.2 mm 1 m/S 680 mmHg 60%
    11:00 +30°C° 0.2 mm 1 m/S 680 mmHg 54%
    12:00 +30°C° 0.4 mm 1 m/S 679 mmHg 54%
    13:00 +30°C° 0.4 mm 1 m/S 679 mmHg 54%
    14:00 +30°C° 0.4 mm 1 m/S 678 mmHg 55%
    15:00 +29°C° 0.9 mm 1 m/S 678 mmHg 60%
    16:00 +28°C° 0.9 mm 1 m/S 678 mmHg 66%
    17:00 +27°C° 0.9 mm 2 m/S 678 mmHg 72%
    18:00 +26°C° 0.8 mm 2 m/S 678 mmHg 76%
    19:00 +25°C° 0.8 mm 2 m/S 679 mmHg 80%
    20:00 +24°C° 0.8 mm 2 m/S 679 mmHg 84%
    21:00 +23°C° 1.4 mm 1 m/S 679 mmHg 86%
    22:00 +23°C° 1.4 mm 1 m/S 680 mmHg 88%
    23:00 +23°C° 1.4 mm 1 m/S 680 mmHg 90%

    14 Dezember, Freitag

    Zeit Temperatur Niederschläge Wind Luftdruck Luftfeuchtigkeit
    00:00 +23°C° 1.8 mm 1 m/S 679 mmHg 90%
    01:00 +22°C° 1.8 mm 1 m/S 679 mmHg 91%
    02:00 +22°C° 1.8 mm 1 m/S 679 mmHg 92%
    03:00 +22°C° 1.2 mm 1 m/S 679 mmHg 92%
    04:00 +22°C° 1.2 mm 1 m/S 679 mmHg 93%
    05:00 +22°C° 1.2 mm 1 m/S 680 mmHg 93%
    06:00 +22°C° 0.9 mm 1 m/S 680 mmHg 91%
    07:00 +22°C° 0.9 mm 1 m/S 681 mmHg 90%
    08:00 +23°C° 0.9 mm 1 m/S 681 mmHg 88%
    09:00 +23°C° 0.9 mm 1 m/S 681 mmHg 86%
    10:00 +23°C° 0.9 mm 1 m/S 681 mmHg 83%
    11:00 +24°C° 0.9 mm 1 m/S 681 mmHg 81%
    12:00 +24°C° 0.5 mm 1 m/S 681 mmHg 81%
    13:00 +24°C° 0.5 mm 1 m/S 680 mmHg 81%
    14:00 +24°C° 0.5 mm 1 m/S 680 mmHg 81%
    15:00 +23°C° 0.3 mm 1 m/S 680 mmHg 83%
    16:00 +23°C° 0.3 mm 1 m/S 680 mmHg 85%
    17:00 +23°C° 0.3 mm 1 m/S 680 mmHg 87%
    18:00 +22°C° 0.1 mm 1 m/S 680 mmHg 89%
    19:00 +22°C° 0.1 mm 1 m/S 680 mmHg 90%
    20:00 +21°C° 0.1 mm 1 m/S 681 mmHg 92%
    21:00 +21°C° 0 mm 1 m/S 681 mmHg 93%
    22:00 +21°C° 0 mm 1 m/S 681 mmHg 94%
    23:00 +20°C° 0 mm 1 m/S 680 mmHg 95%
    Mehr zeigen